Content
SEND FEEDBACK

Daily
Averages
Monthly
Summary
United States of America

BARTON HILLS, MICHIGAN


Home > North America > United States > Michigan
Elevation: 899 feet     Latitude: 42 18N     Longitude: 083 43W

WEATHER
 
SELECT A DAY
Number of Records: 206,981;   Date Range: 1/1/95 - 10/20/14
 
SHARE

PRINT THIS DATA

[ ← Previous Day ]
WEATHER ALMANAC - AUGUST 28, 2013
[ Next Day → ]
[ °C ]   °F
Weather ElementAverageHighLow
Temperature77 °F82.9 °F (12:53 pm)71.6 °F (5:36 am)
Dewpoint72.1 °F73.9 °F (12:53 am)68 °F (11:53 pm)
Humidity85.5 %100 % (5:36 am)67 % (5:53 pm)
Barometer29.87 in30.00 in (10:53 pm)29.79 in (3:53 am)
Wind Speed7.4 mph11.5 mph (2:53 am)
Weather ElementAverage
Visibility8.7 mi
Wind DirectionSSW (196.8 °)

Weather ElementTotal
Precipitation0.09 in
Cooling Degree Days12.3 (Base 65)
Growing Degree Days27.3 (Base 50)
Averaged from 37 records on August 28, 2013
WEATHER CONDITIONS BREAKOUT
WIND DIRECTION BREAKOUT
WEATHER BY HOUR - AUGUST 28, 2013
[ °C ]   °F
Local TimeTemperatureDewpointHumidityBarometerVisibilityWind DirectionWind SpeedGust SpeedPrecipitationEventsConditions
12:53 AM77.0 °F73.9 °F90 %29.82 in6.0 miSouth (180°)9.2 mph0.06 inRainLight Rain
1:03 AM77.0 °F73.4 °F89 %29.84 in6.0 miSouth (170°)9.2 mph0.00 inRain-ThunderstormLight Rain
1:53 AM77.0 °F73.9 °F90 %29.82 in5.0 miSSW (210°)6.9 mph0.03 inRainLight Rain
2:13 AM75.2 °F73.4 °F94 %29.83 in6.0 miWSW (240°)8.1 mph0.00 inOvercast
2:40 AM75.2 °F73.4 °F94 %29.81 in8.0 miWSW (250°)9.2 mph0.00 inThunderstormMostly Cloudy
2:49 AM75.2 °F73.4 °F94 %29.81 in8.0 miWest (260°)10.4 mph0.00 inOvercast
2:53 AM75.9 °F73.0 °F91 %29.80 in9.0 miWest (260°)11.5 mph0.00 inOvercast
3:22 AM75.2 °F73.4 °F94 %29.81 in10.0 miWest (270°)10.4 mphScattered Clouds
3:53 AM75.0 °F73.0 °F94 %29.79 in10.0 miWest (260°)9.2 mphClear
4:33 AM75.2 °F71.6 °F89 %29.81 in10.0 miWest (270°)10.4 mphMostly Cloudy
4:53 AM73.0 °F72.0 °F96 %29.79 in10.0 miWest (280°)4.6 mphPartly Cloudy
5:36 AM71.6 °F71.6 °F100 %29.82 in10.0 miSW (230°)3.5 mphMostly Cloudy
5:53 AM73.0 °F72.0 °F96 %29.81 in10.0 miCalmOvercast
6:53 AM73.9 °F72.0 °F93 %29.82 in10.0 miCalmOvercast
7:53 AM75.0 °F73.0 °F94 %29.83 in7.0 miNNW (340°)5.8 mphOvercast
8:21 AM75.2 °F73.4 °F94 %29.86 in2.5 miNNW (340°)4.6 mphOvercast
8:39 AM75.2 °F73.4 °F94 %29.86 in5.0 miNNW (340°)4.6 mphOvercast
8:53 AM75.9 °F73.9 °F94 %29.85 in8.0 miNNW (330°)4.6 mphOvercast
9:00 AM75.2 °F73.4 °F94 %29.86 in8.0 miNorth (350°)4.6 mphOvercast
9:53 AM77.0 °F73.0 °F88 %29.86 in10.0 miNNE (30°)9.2 mphOvercast
10:53 AM79.0 °F73.0 °F82 %29.86 in10.0 miNNE (20°)10.4 mphOvercast
11:00 AM78.8 °F73.4 °F83 %29.88 in9.0 miNNE (20°)10.4 mphOvercast
11:18 AM78.8 °F71.6 °F78 %29.89 in8.0 miNorth (10°)8.1 mphOvercast
11:53 AM78.1 °F72.0 °F81 %29.88 in7.0 miNNE (30°)9.2 mphOvercast
12:40 PM80.6 °F71.6 °F74 %29.90 in9.0 miNNE (20°)9.2 mphOvercast
12:53 PM82.9 °F73.0 °F72 %29.88 in9.0 miNorth (350°)8.1 mphMostly Cloudy
1:53 PM82.0 °F72.0 °F71 %29.90 in10.0 miNorth (360°)10.4 mphMostly Cloudy
2:53 PM81.0 °F71.1 °F72 %29.91 in10.0 miNorth (360°)8.1 mphOvercast
3:53 PM81.0 °F71.1 °F72 %29.92 in10.0 miNNE (20°)8.1 mphOvercast
4:53 PM81.0 °F70.0 °F69 %29.93 in10.0 miNorth (10°)10.4 mphOvercast
5:53 PM82.9 °F71.1 °F67 %29.93 in10.0 miNNE (20°)8.1 mphPartly Cloudy
6:53 PM81.0 °F71.1 °F72 %29.94 in10.0 miNE (40°)6.9 mphScattered Clouds
7:53 PM80.1 °F69.1 °F69 %29.95 in10.0 miNNW (340°)6.9 mphMostly Cloudy
8:53 PM77.0 °F71.1 °F82 %29.96 in10.0 miNNW (340°)8.1 mphPartly Cloudy
9:53 PM75.9 °F71.1 °F85 %29.99 in10.0 miNorth (360°)5.8 mphMostly Cloudy
10:53 PM73.9 °F69.1 °F85 %30.00 in10.0 miNorth (10°)5.8 mphClear
11:53 PM72.0 °F68.0 °F87 %30.00 in10.0 miNorth (360°)3.5 mphClear
Hourly data recorded from KARB, located miles away from Barton Hills, Michigan







STORIES FROM OUR PARTNERS